Regional Weather Roundup
Issued by NWS

Home | Current Version | Previous Version | Graphics & Text | Print | Product List | Glossary On
Versions: 1 2 3 4 5 6 7 8 9 10 11 12 13 14 15 16 17 18 19 20 21 22 23 24 25 26 27 28 29 30 31 32 33 34 35 36 37 38 39 40 41 42 43 44 45 46 47 48 49 50
983
ASUS45 KBOI 211110
RWRID

IDAHO REGIONAL WEATHER ROUNDUP
NATIONAL WEATHER SERVICE BOISE ID
400 AM MST WED FEB 21 2018

NOTE: "FAIR" INDICATES FEW OR NO CLOUDS BELOW 12000 FEET
WITH NO SIGNIFICANT WEATHER AND/OR OBSTRUCTIONS TO VISIBILITY

IDZ012-014-211200-
SOUTHWEST IDAHO


CITY           SKY/WX    TMP DP  RH WIND       PRES   REMARKS
BOISE          PTCLDY    23   4  44 SE10      30.13F WCI  12
CALDWELL       CLOUDY    23   7  50 SE14      30.16F WCI  11
MOUNTAIN HOME  PTCLDY    17  12  80 SE12      30.14F WCI   4
$$

IDZ016-017-211200-
SOUTHCENTRAL IDAHO


CITY           SKY/WX    TMP DP  RH WIND       PRES   REMARKS
BURLEY         CLOUDY    12   6  77 NE5       30.10F WCI   4
JEROME         MOCLDY    16   7  67 NE8       30.11F WCI   5
TWIN FALLS     MOCLDY    17   5  59 S12       30.08F WCI   4
$$

IDZ019>023-211200-
SOUTHEAST IDAHO


CITY           SKY/WX    TMP DP  RH WIND       PRES   REMARKS
IDAHO FALLS    PTCLDY     9   4  80 CALM      30.11F
POCATELLO      MOCLDY    12   5  73 CALM      30.11F
REXBURG        CLOUDY     8   4  83 N3        30.10S
$$

IDZ006-010-011-018-031-032-211200-
CENTRAL IDAHO MOUNTAINS


CITY           SKY/WX    TMP DP  RH WIND       PRES   REMARKS
MCCALL         LGT SNOW   7   3  84 NE3       30.01S FOG
HAILEY         PTCLDY     7  -2  66 N12       30.09S WCI  -9
STANLEY          N/A     -7 -13  75 SE3       29.99F
SALMON         CLOUDY    11   5  77 CALM      30.11F
CHALLIS        CLEAR      5  -4  66 VRB3      30.05S
$$

IDZ002-004-006-007-026-211200-
NORTHERN IDAHO


CITY           SKY/WX    TMP DP  RH WIND       PRES   REMARKS
LEWISTON       CLOUDY    22  13  68 SE3       30.27S
LOWELL           N/A     20  14  77 CALM      30.31S
COEUR D`ALENE  CLEAR      1  -3  83 E5        30.25S WCI  -9
MULLAN PASS    CLEAR     -1  -8  72 CALM      29.91F
$$




USA.gov is the U.S. government's official web portal to all federal, state and local government web resources and services.